• In Deutschland
  • Länderverzeichnis
  • Für 7 Tage
  • Wassertemperatur
  • Satellitenkarten
  • Wetterkarte
  • Widgets
  • user-avatar
    Anmelden

    Stündliche Wetter Zirndorf

    Heute, 22 Juli, Sonntag

    Zeit Temperatur Niederschläge Wind Luftdruck Luftfeuchtigkeit
    00:00 +18°C° 0,4 mm 1 m/S 732 mmHg 94%
    01:00 +18°C° 0 mm 1 m/S 732 mmHg 95%
    02:00 +18°C° 0,4 mm 1 m/S 732 mmHg 95%
    03:00 +18°C° 0,4 mm 1 m/S 732 mmHg 96%
    04:00 +18°C° 0,4 mm 1 m/S 732 mmHg 96%
    05:00 +18°C° 0,5 mm 1 m/S 732 mmHg 96%
    06:00 +18°C° 0,5 mm 1 m/S 732 mmHg 95%
    07:00 +18°C° 0,5 mm 1 m/S 733 mmHg 95%
    08:00 +18°C° 0,8 mm 2 m/S 733 mmHg 94%
    09:00 +18°C° 0,8 mm 2 m/S 733 mmHg 94%
    10:00 +18°C° 0,8 mm 2 m/S 733 mmHg 93%
    11:00 +19°C° 0,3 mm 2 m/S 733 mmHg 90%
    12:00 +19°C° 0,3 mm 2 m/S 733 mmHg 88%
    13:00 +20°C° 0,3 mm 2 m/S 733 mmHg 85%
    14:00 +21°C° 0,1 mm 2 m/S 733 mmHg 80%
    15:00 +23°C° 0,1 mm 2 m/S 733 mmHg 75%
    16:00 +24°C° 0,1 mm 2 m/S 733 mmHg 70%
    17:00 +23°C° 0,4 mm 2 m/S 733 mmHg 74%
    18:00 +23°C° 0,4 mm 2 m/S 733 mmHg 79%
    19:00 +21°C° 0,4 mm 2 m/S 733 mmHg 83%
    20:00 +20°C° 0,2 mm 2 m/S 733 mmHg 84%
    21:00 +20°C° 0,2 mm 1 m/S 734 mmHg 86%
    22:00 +19°C° 0,2 mm 1 m/S 734 mmHg 87%
    23:00 +19°C° 0,1 mm 1 m/S 734 mmHg 87%

    Morgen, 23 Juli, Montag

    Zeit Temperatur Niederschläge Wind Luftdruck Luftfeuchtigkeit
    00:00 +19°C° 0,1 mm 1 m/S 734 mmHg 87%
    01:00 +18°C° 0,1 mm 1 m/S 734 mmHg 87%
    02:00 +18°C° 0 mm 1 m/S 734 mmHg 87%
    03:00 +18°C° 0 mm 1 m/S 734 mmHg 88%
    04:00 +16°C° 0 mm 1 m/S 735 mmHg 88%
    05:00 +18°C° 0 mm 1 m/S 735 mmHg 86%
    06:00 +19°C° 0 mm 1 m/S 735 mmHg 84%
    07:00 +20°C° 0 mm 1 m/S 735 mmHg 83%
    08:00 +22°C° 0,1 mm 1 m/S 736 mmHg 76%
    09:00 +23°C° 0,1 mm 2 m/S 736 mmHg 70%
    10:00 +25°C° 0,1 mm 2 m/S 736 mmHg 64%
    11:00 +26°C° 0,3 mm 2 m/S 736 mmHg 62%
    12:00 +26°C° 0,3 mm 2 m/S 736 mmHg 61%
    13:00 +27°C° 0,3 mm 2 m/S 736 mmHg 59%
    14:00 +27°C° 0,4 mm 2 m/S 735 mmHg 59%
    15:00 +27°C° 0,4 mm 2 m/S 735 mmHg 58%
    16:00 +27°C° 0,4 mm 2 m/S 735 mmHg 58%
    17:00 +27°C° 0,1 mm 2 m/S 735 mmHg 62%
    18:00 +26°C° 0,1 mm 2 m/S 735 mmHg 65%
    19:00 +25°C° 0,1 mm 1 m/S 735 mmHg 69%
    20:00 +23°C° 0 mm 1 m/S 736 mmHg 73%
    21:00 +22°C° 0 mm 1 m/S 736 mmHg 77%
    22:00 +20°C° 0 mm 1 m/S 736 mmHg 80%
    23:00 +20°C° 0 mm 1 m/S 736 mmHg 82%

    übermorgen, 24 Juli, Dienstag

    Zeit Temperatur Niederschläge Wind Luftdruck Luftfeuchtigkeit
    00:00 +19°C° 0 mm 1 m/S 736 mmHg 84%
    01:00 +18°C° 0 mm 1 m/S 735 mmHg 86%
    02:00 +18°C° 0 mm 1 m/S 735 mmHg 87%
    03:00 +18°C° 0 mm 1 m/S 735 mmHg 87%
    04:00 +18°C° 0 mm 1 m/S 735 mmHg 88%
    05:00 +19°C° 0 mm 1 m/S 735 mmHg 84%
    06:00 +20°C° 0 mm 1 m/S 735 mmHg 81%
    07:00 +21°C° 0 mm 1 m/S 735 mmHg 77%
    08:00 +23°C° 0 mm 1 m/S 735 mmHg 70%
    09:00 +25°C° 0 mm 2 m/S 735 mmHg 62%
    10:00 +26°C° 0 mm 2 m/S 735 mmHg 55%
    11:00 +27°C° 0 mm 2 m/S 735 mmHg 51%
    12:00 +28°C° 0 mm 2 m/S 734 mmHg 47%
    13:00 +29°C° 0 mm 2 m/S 734 mmHg 43%
    14:00 +30°C° 0 mm 2 m/S 734 mmHg 43%
    15:00 +30°C° 0 mm 2 m/S 734 mmHg 42%
    16:00 +30°C° 0 mm 1 m/S 733 mmHg 41%
    17:00 +29°C° 0 mm 1 m/S 733 mmHg 47%
    18:00 +28°C° 0 mm 1 m/S 733 mmHg 54%
    19:00 +26°C° 0 mm 1 m/S 733 mmHg 60%
    20:00 +25°C° 0 mm 1 m/S 733 mmHg 65%
    21:00 +23°C° 0 mm 1 m/S 734 mmHg 70%
    22:00 +21°C° 0 mm 1 m/S 734 mmHg 75%
    23:00 +21°C° 0 mm 1 m/S 734 mmHg 77%

    25 Juli, Mittwoch

    Zeit Temperatur Niederschläge Wind Luftdruck Luftfeuchtigkeit
    00:00 +20°C° 0 mm 1 m/S 734 mmHg 79%
    01:00 +20°C° 0 mm 1 m/S 734 mmHg 81%
    02:00 +19°C° 0 mm 1 m/S 734 mmHg 82%
    03:00 +19°C° 0 mm 1 m/S 734 mmHg 83%
    04:00 +19°C° 0 mm 1 m/S 734 mmHg 85%
    05:00 +20°C° 0 mm 1 m/S 734 mmHg 81%
    06:00 +21°C° 0 mm 1 m/S 734 mmHg 77%
    07:00 +22°C° 0 mm 1 m/S 734 mmHg 73%
    08:00 +24°C° 0 mm 1 m/S 734 mmHg 66%
    09:00 +26°C° 0 mm 1 m/S 734 mmHg 60%
    10:00 +28°C° 0 mm 1 m/S 735 mmHg 53%
    11:00 +29°C° 0 mm 1 m/S 734 mmHg 50%
    12:00 +30°C° 0 mm 1 m/S 734 mmHg 47%
    13:00 +31°C° 0 mm 1 m/S 734 mmHg 44%
    14:00 +31°C° 0 mm 1 m/S 734 mmHg 45%
    15:00 +31°C° 0 mm 1 m/S 733 mmHg 46%
    16:00 +30°C° 0 mm 2 m/S 733 mmHg 47%
    17:00 +29°C° 0,1 mm 2 m/S 733 mmHg 54%
    18:00 +28°C° 0,1 mm 2 m/S 733 mmHg 61%
    19:00 +27°C° 0,1 mm 2 m/S 733 mmHg 68%
    20:00 +25°C° 0 mm 2 m/S 733 mmHg 73%
    21:00 +24°C° 0 mm 1 m/S 734 mmHg 78%
    22:00 +22°C° 0 mm 1 m/S 734 mmHg 83%
    23:00 +22°C° 0 mm 1 m/S 734 mmHg 84%

    26 Juli, Donnerstag

    Zeit Temperatur Niederschläge Wind Luftdruck Luftfeuchtigkeit
    00:00 +21°C° 0 mm 1 m/S 734 mmHg 86%
    01:00 +21°C° 0 mm 1 m/S 734 mmHg 88%
    02:00 +20°C° 0 mm 1 m/S 734 mmHg 88%
    03:00 +20°C° 0 mm 1 m/S 734 mmHg 89%
    04:00 +18°C° 0 mm 0 m/S 734 mmHg 90%
    05:00 +19°C° 0 mm 0 m/S 734 mmHg 86%
    06:00 +20°C° 0 mm 0 m/S 734 mmHg 82%
    07:00 +23°C° 0 mm 1 m/S 734 mmHg 79%
    08:00 +25°C° 0 mm 1 m/S 734 mmHg 71%
    09:00 +27°C° 0 mm 1 m/S 735 mmHg 63%
    10:00 +29°C° 0 mm 1 m/S 735 mmHg 54%
    11:00 +29°C° 0 mm 1 m/S 735 mmHg 50%
    12:00 +30°C° 0 mm 1 m/S 734 mmHg 46%
    13:00 +31°C° 0 mm 2 m/S 734 mmHg 42%
    14:00 +31°C° 0 mm 2 m/S 734 mmHg 43%
    15:00 +31°C° 0 mm 2 m/S 734 mmHg 44%
    16:00 +31°C° 0 mm 2 m/S 734 mmHg 45%
    17:00 +30°C° 0 mm 2 m/S 734 mmHg 50%
    18:00 +28°C° 0 mm 2 m/S 734 mmHg 55%
    19:00 +27°C° 0 mm 1 m/S 734 mmHg 60%
    20:00 +26°C° 0 mm 1 m/S 734 mmHg 63%
    21:00 +24°C° 0 mm 2 m/S 735 mmHg 66%
    22:00 +23°C° 0 mm 2 m/S 735 mmHg 69%
    23:00 +22°C° 0 mm 1 m/S 735 mmHg 70%

    27 Juli, Freitag

    Zeit Temperatur Niederschläge Wind Luftdruck Luftfeuchtigkeit
    00:00 +21°C° 0 mm 1 m/S 735 mmHg 72%
    01:00 +20°C° 0 mm 1 m/S 735 mmHg 73%
    02:00 +20°C° 0 mm 1 m/S 734 mmHg 75%
    03:00 +20°C° 0 mm 1 m/S 734 mmHg 77%
    04:00 +19°C° 0 mm 1 m/S 734 mmHg 79%
    05:00 +20°C° 0 mm 1 m/S 734 mmHg 77%
    06:00 +21°C° 0 mm 1 m/S 734 mmHg 74%
    07:00 +23°C° 0 mm 1 m/S 734 mmHg 71%
    08:00 +25°C° 0 mm 1 m/S 734 mmHg 65%
    09:00 +27°C° 0 mm 1 m/S 734 mmHg 59%
    10:00 +28°C° 0 mm 2 m/S 734 mmHg 52%
    11:00 +30°C° 0 mm 1 m/S 734 mmHg 48%
    12:00 +31°C° 0 mm 1 m/S 734 mmHg 44%
    13:00 +32°C° 0 mm 1 m/S 734 mmHg 40%
    14:00 +32°C° 0 mm 1 m/S 733 mmHg 40%
    15:00 +32°C° 0 mm 1 m/S 733 mmHg 41%
    16:00 +31°C° 0 mm 1 m/S 733 mmHg 41%
    17:00 +30°C° 0 mm 1 m/S 733 mmHg 47%
    18:00 +29°C° 0 mm 1 m/S 733 mmHg 52%
    19:00 +28°C° 0 mm 1 m/S 733 mmHg 58%
    20:00 +26°C° 0 mm 1 m/S 733 mmHg 62%
    21:00 +25°C° 0 mm 1 m/S 733 mmHg 67%
    22:00 +23°C° 0 mm 1 m/S 733 mmHg 71%
    23:00 +23°C° 0 mm 1 m/S 733 mmHg 73%
    Mehr zeigen